Tracking 29932 objects as of 4-Dec-2024
HD Live streaming from Space Station
objects crossing your sky now

STARLINK-31335

Track STARLINK-31335 now!
10-day predictions
STARLINK-31335 is classified as:


NORAD ID: 58969
Int'l Code: 2024-031E
Perigee: 481.5 km
Apogee: 482.8 km
Inclination: 53.2 °
Period: 94.1 minutes
Semi major axis: 6853 km
RCS: Unknown
Launch date: February 15, 2023
Source: United States (US)
Launch site: AIR FORCE WESTERN TEST RANGE (AFWTR)
Your satellite tracking list
Your tracking list is empty




NASA's NSSDC Master Catalog

Two Line Element Set (TLE):
1 58969U 24031E   24338.58335648 -.00114511  00000-0 -39067-2 0  9991
2 58969  53.1585 278.1850 0000960  72.3474 157.5750 15.30258030  5764
Source of the keplerian elements: AFSPC